User: anonymous   Login
Location: Cherry Springs State Park
(41.6616°N, 77.8240°W)
Time: 07:06:17
(UTC-04:00)
Language:

Cosmos 1437 - Orbit

View from above orbital plane
View from above orbital plane
View from above satellite
View from above satellite

Ground track
Ground track

The orbit data is extracted from the following two-line orbital elements,

1 13770U 83003A   17083.92713905 +.00007632 +00000-0 +13339-3 0  9997
2 13770 081.1559 251.8952 0006721 190.6521 169.4585 15.50452986873181
Epoch (UTC): 24 March 2017 22:15:04
Eccentricity: 0.0006721
inclination: 81.1559°
perigee height: 411 km
apogee height: 420 km
right ascension of ascending node: 251.8952°
argument of perigee: 190.6521°
revolutions per day: 15.50452986
mean anomaly at epoch: 169.4585°
orbit number at epoch: 87318

The dashed part of the orbit path shows where the satellite is in the earth's shadow,  

DLR